Location: Shepherdstown, WV
(39.4326°N, 77.8042°W)
Time: 00:08:32
(UTC-04:00)

Vanguard 1 Rocket - All Passes

Search period start: 06 August 2021 00:00
Search period end: 16 August 2021 00:00
Orbit: 650 x 4226 km, 34.3° (Epoch: 05 August)

Date Brightness Start Highest point End Pass type
(mag) Time Alt. Az. Time Alt. Az. Time Alt. Az.
06 Aug - 06:07:21 10° S 06:24:35 23° SE 06:39:39 10° E daylight
06 Aug - 08:30:42 10° SW 08:54:39 50° SSE 09:10:35 10° E daylight
06 Aug - 11:02:08 10° WSW 11:24:43 70° S 11:36:36 10° E daylight
06 Aug - 13:36:21 10° W 13:52:40 63° SSW 14:00:50 10° ESE daylight
06 Aug - 16:09:34 10° W 16:17:19 24° SW 16:22:24 10° S daylight
07 Aug - 05:01:56 10° SSE 05:11:05 13° SE 05:19:56 10° ESE visible
07 Aug - 07:17:52 10° SSW 07:40:31 40° SE 07:57:55 10° E daylight
07 Aug - 09:46:36 10° WSW 10:11:05 65° SSE 10:25:22 10° E daylight
07 Aug - 12:20:24 10° W 12:40:24 71° S 12:50:24 10° ESE daylight
07 Aug - 14:54:18 10° W 15:06:40 41° SSW 15:13:27 10° SE daylight
08 Aug - 06:06:48 10° S 06:26:31 29° SE 06:43:50 10° E daylight
08 Aug - 08:32:01 10° SW 08:56:56 56° SSE 09:13:36 10° E daylight
08 Aug - 11:04:15 10° WSW 11:27:21 73° S 11:39:34 10° E daylight
08 Aug - 13:38:44 10° W 13:55:17 58° SSW 14:03:40 10° SE daylight
08 Aug - 16:12:53 10° W 16:19:31 18° SW 16:24:13 10° S daylight
09 Aug - 04:58:29 10° SSE 05:12:56 19° SE 05:26:57 10° E visible
09 Aug - 07:18:45 10° SSW 07:42:35 46° SSE 08:01:05 10° E daylight
09 Aug - 09:48:29 10° WSW 10:13:34 70° SSE 10:28:18 10° E daylight
09 Aug - 12:22:42 10° W 12:43:04 69° SSW 12:53:19 10° ESE daylight
09 Aug - 14:56:57 10° W 15:09:01 35° SW 15:15:54 10° SSE daylight
10 Aug - 06:07:03 10° SSW 06:28:22 36° SE 06:47:24 10° E daylight
10 Aug - 08:33:38 10° SW 08:59:14 63° SSE 09:16:31 10° E daylight
10 Aug - 11:06:28 10° W 11:29:58 74° S 11:42:30 10° E daylight
10 Aug - 13:41:09 10° W 13:57:46 52° SSW 14:06:23 10° SE daylight
10 Aug - 16:16:50 10° W 16:21:36 14° SW 16:25:20 10° SSW daylight
11 Aug - 04:57:23 10° S 05:14:39 24° SE 05:31:47 10° E visible
11 Aug - 07:20:01 10° SW 07:44:37 53° SSE 08:04:03 10° E daylight
11 Aug - 09:50:33 10° WSW 10:16:04 73° S 10:31:12 10° E daylight
11 Aug - 12:25:01 10° W 12:45:38 66° SSW 12:56:10 10° ESE daylight
11 Aug - 14:59:45 10° W 15:11:12 29° SW 15:18:06 10° SSE daylight
12 Aug - 03:52:01 10° SSE 04:01:32 14° SE 04:11:24 10° ESE visible
12 Aug - 06:07:50 10° SSW 06:30:11 42° SE 06:50:37 10° E daylight
12 Aug - 08:35:29 10° WSW 09:01:31 68° SSE 09:19:23 10° E daylight
12 Aug - 11:08:44 10° W 11:32:32 74° S 11:45:24 10° ESE daylight
12 Aug - 13:43:36 10° W 14:00:07 46° SW 14:08:57 10° SE daylight
13 Aug - 04:57:21 10° S 05:16:16 30° SE 05:35:40 10° E visible
13 Aug - 07:21:35 10° SW 07:46:41 59° SSE 08:06:55 10° E daylight
13 Aug - 09:52:44 10° WSW 10:18:33 75° S 10:34:05 10° E daylight
13 Aug - 12:27:20 10° W 12:48:06 61° SSW 12:58:55 10° SE daylight
13 Aug - 15:02:47 10° W 15:13:14 23° SW 15:19:58 10° S daylight
14 Aug - 03:49:28 10° SSE 04:03:05 19° SE 04:17:51 10° E visible
14 Aug - 06:09:03 10° SSW 06:31:59 49° SE 06:53:35 10° E daylight
14 Aug - 08:37:32 10° WSW 09:03:50 72° SSE 09:22:13 10° E daylight
14 Aug - 11:11:01 10° W 11:35:04 71° SSW 11:48:14 10° ESE daylight
14 Aug - 13:46:06 10° W 14:02:18 40° SW 14:11:19 10° SSE daylight
15 Aug - 04:58:00 10° SSW 05:17:52 37° SE 05:39:01 10° E visible
15 Aug - 07:23:26 10° SW 07:48:46 65° SSE 08:09:42 10° E daylight
15 Aug - 09:55:01 10° W 10:21:01 76° S 10:36:56 10° E daylight
15 Aug - 12:29:40 10° W 12:50:26 56° SSW 13:01:33 10° SE daylight
15 Aug - 15:06:15 10° W 15:15:07 18° SW 15:21:22 10° SSW daylight
